TimeAEST,TemperatureF,Dew PointF,Humidity,Sea Level PressureIn,VisibilityMPH,Wind Direction,Wind SpeedMPH,Gust SpeedMPH,PrecipitationIn,Events,Conditions,WindDirDegrees,DateUTC
12:00 AM,76,72,85,29.90,,South,10.4,,,,Overcast,170,2013-12-08 14:00:00
12:30 AM,77.0,71.6,83,29.89,6.2,South,11.5,-,N/A,,Partly Cloudy,180,2013-12-08 14:30:00
1:00 AM,76,72,84,29.88,,South,8.1,,,,,170,2013-12-08 15:00:00
1:00 AM,77.0,71.6,83,29.86,6.2,South,8.1,-,N/A,,Partly Cloudy,170,2013-12-08 15:00:00
1:30 AM,75.2,71.6,89,29.86,6.2,SSE,9.2,-,N/A,,Partly Cloudy,150,2013-12-08 15:30:00
2:00 AM,75.2,71.6,89,29.86,6.2,South,9.2,-,N/A,,Partly Cloudy,180,2013-12-08 16:00:00
2:30 AM,75.2,71.6,89,29.83,6.2,South,10.4,-,N/A,,Partly Cloudy,170,2013-12-08 16:30:00
3:00 AM,76,71,79,29.84,,South,9.2,,,,,170,2013-12-08 17:00:00
3:00 AM,77.0,71.6,83,29.83,6.2,South,9.2,-,N/A,,Partly Cloudy,170,2013-12-08 17:00:00
3:30 AM,75.2,71.6,89,29.83,6.2,SSE,10.4,-,N/A,,Partly Cloudy,160,2013-12-08 17:30:00
4:00 AM,74,71,86,29.85,,SE,9.2,,,,,140,2013-12-08 18:00:00
4:00 AM,75.2,71.6,89,29.83,6.2,SE,9.2,-,N/A,,Partly Cloudy,140,2013-12-08 18:00:00
4:30 AM,75.2,69.8,83,29.83,6.2,SSE,10.4,-,N/A,,Partly Cloudy,160,2013-12-08 18:30:00
5:00 AM,75.2,69.8,83,29.83,6.2,SSE,10.4,-,N/A,,Partly Cloudy,160,2013-12-08 19:00:00
5:30 AM,75.2,69.8,83,29.86,6.2,South,8.1,-,N/A,,Partly Cloudy,170,2013-12-08 19:30:00
6:00 AM,75,69,76,29.87,19,South,10.4,,,,Partly Cloudy,170,2013-12-08 20:00:00
6:00 AM,75.2,69.8,83,29.86,6.2,South,10.4,-,N/A,,Partly Cloudy,170,2013-12-08 20:00:00
6:30 AM,75.2,69.8,83,29.86,6.2,SSE,10.4,-,N/A,,Partly Cloudy,160,2013-12-08 20:30:00
7:00 AM,77,69,71,29.89,,SSE,12.7,,,,,160,2013-12-08 21:00:00
7:00 AM,77.0,69.8,78,29.86,6.2,SSE,12.7,-,N/A,,Partly Cloudy,160,2013-12-08 21:00:00
7:30 AM,78.8,69.8,74,29.89,6.2,South,10.4,-,N/A,,Partly Cloudy,170,2013-12-08 21:30:00
8:00 AM,80.6,69.8,70,29.89,6.2,South,12.7,-,N/A,,Partly Cloudy,170,2013-12-08 22:00:00
8:30 AM,82.4,69.8,66,29.89,6.2,SSE,15.0,-,N/A,,Partly Cloudy,160,2013-12-08 22:30:00
9:00 AM,81,69,60,29.90,19,SSE,12.7,,,,Partly Cloudy,150,2013-12-08 23:00:00
9:00 AM,80.6,69.8,70,29.89,6.2,SSE,12.7,-,N/A,,Scattered Clouds,150,2013-12-08 23:00:00
9:30 AM,84.2,68.0,58,29.89,6.2,SSE,13.8,-,N/A,,Partly Cloudy,150,2013-12-08 23:30:00
10:00 AM,86,68,46,29.89,,SE,18.4,,,,,130,2013-12-09 00:00:00
10:00 AM,86.0,68.0,55,29.86,6.2,SE,18.4,-,N/A,,Partly Cloudy,130,2013-12-09 00:00:00
10:30 AM,86.0,68.0,55,29.86,6.2,SE,19.6,-,N/A,,Partly Cloudy,130,2013-12-09 00:30:00
11:00 AM,86.0,68.0,55,29.86,6.2,SE,19.6,-,N/A,,Partly Cloudy,140,2013-12-09 01:00:00
11:30 AM,86.0,68.0,55,29.86,6.2,SE,19.6,-,N/A,,Partly Cloudy,130,2013-12-09 01:30:00
12:00 PM,86,69,47,29.85,19,SE,19.6,,,,Partly Cloudy,130,2013-12-09 02:00:00
12:00 PM,86.0,68.0,55,29.83,6.2,SE,19.6,-,N/A,,Partly Cloudy,130,2013-12-09 02:00:00
12:30 PM,87.8,66.2,49,29.83,6.2,SE,17.3,-,N/A,,Partly Cloudy,130,2013-12-09 02:30:00
1:00 PM,88,66,38,29.83,,SE,18.4,,,,,130,2013-12-09 03:00:00
1:00 PM,87.8,66.2,49,29.83,6.2,SE,18.4,-,N/A,,Partly Cloudy,130,2013-12-09 03:00:00
1:30 PM,87.8,64.4,46,29.80,6.2,SE,18.4,-,N/A,,Partly Cloudy,130,2013-12-09 03:30:00
2:00 PM,87.8,64.4,46,29.80,6.2,SE,20.7,-,N/A,,Partly Cloudy,130,2013-12-09 04:00:00
2:30 PM,87.8,64.4,46,29.80,6.2,SE,18.4,-,N/A,,Partly Cloudy,140,2013-12-09 04:30:00
3:00 PM,85,64,40,29.80,19,SE,16.1,,,,Partly Cloudy,140,2013-12-09 05:00:00
3:00 PM,86.0,64.4,48,29.80,6.2,SE,16.1,-,N/A,,Partly Cloudy,140,2013-12-09 05:00:00
3:30 PM,86.0,64.4,48,29.77,6.2,SE,16.1,-,N/A,,Partly Cloudy,140,2013-12-09 05:30:00
4:00 PM,85,66,43,29.80,,SE,18.4,,,,,140,2013-12-09 06:00:00
4:00 PM,86.0,66.2,51,29.77,6.2,SE,18.4,-,N/A,,Partly Cloudy,140,2013-12-09 06:00:00
4:30 PM,84.2,66.2,55,29.77,6.2,SE,19.6,-,N/A,,Partly Cloudy,130,2013-12-09 06:30:00
5:00 PM,84.2,66.2,55,29.80,6.2,SE,17.3,-,N/A,,Partly Cloudy,140,2013-12-09 07:00:00
5:30 PM,82.4,64.4,54,29.80,6.2,SE,15.0,-,N/A,,Partly Cloudy,140,2013-12-09 07:30:00
6:00 PM,81,66,50,29.81,,SE,16.1,,,,Overcast,140,2013-12-09 08:00:00
6:00 PM,80.6,66.2,61,29.80,6.2,SE,16.1,-,N/A,,Partly Cloudy,130,2013-12-09 08:00:00
6:30 PM,80.6,66.2,61,29.80,6.2,SSE,15.0,-,N/A,,Partly Cloudy,150,2013-12-09 08:30:00
7:00 PM,79,67,58,29.83,,SSE,11.5,,,,,150,2013-12-09 09:00:00
7:00 PM,78.8,66.2,65,29.80,6.2,SSE,11.5,-,N/A,,Partly Cloudy,150,2013-12-09 09:00:00
7:30 PM,78.8,66.2,65,29.83,6.2,SSE,9.2,-,N/A,,Partly Cloudy,150,2013-12-09 09:30:00
8:00 PM,77.0,66.2,69,29.83,6.2,South,6.9,-,N/A,,Partly Cloudy,170,2013-12-09 10:00:00
8:30 PM,77.0,66.2,69,29.83,6.2,South,5.8,-,N/A,,Partly Cloudy,170,2013-12-09 10:30:00
9:00 PM,76,66,64,29.85,,South,5.8,,,,,190,2013-12-09 11:00:00
9:00 PM,77.0,66.2,69,29.83,6.2,South,5.8,-,N/A,,Partly Cloudy,190,2013-12-09 11:00:00
9:30 PM,77.0,66.2,69,29.86,6.2,SSW,4.6,-,N/A,,Partly Cloudy,210,2013-12-09 11:30:00
10:00 PM,76,66,64,29.87,,South,4.6,,,,,180,2013-12-09 12:00:00
10:00 PM,75.2,66.2,73,29.86,6.2,South,4.6,-,N/A,,Partly Cloudy,180,2013-12-09 12:00:00
10:30 PM,75.2,66.2,73,29.86,6.2,South,3.5,-,N/A,,Partly Cloudy,170,2013-12-09 12:30:00
11:00 PM,75.2,66.2,73,29.86,6.2,South,4.6,-,N/A,,Partly Cloudy,180,2013-12-09 13:00:00
11:30 PM,75.2,66.2,73,29.83,6.2,South,8.1,-,N/A,,Partly Cloudy,180,2013-12-09 13:30:00